Flag for Canada Weather past 2 weeks in Chibougamau, Quebec, Canada

Now
43 °F

Passing clouds.


Feels Like: 40 °F
Forecast: N/A
Wind: 5 mph from Northwest

Location: Chibougamau-Chapais

Current Time: Sep 23, 2014 at 7:35:49 PM

Latest Report: Sep 23, 2014 at 7:00 PM


Visibility: 15 mi

Pressure: 30.32 "Hg

Humidity: 66%

Dew point: 32 °F

Location of ChibougamauLocation

Historic Weather in Chibougamau — Graph

°F

Chibougamau temperature yesterday

Maximum temperature yesterday: 45 °F (at 1:00 PM)
Minimum temperature yesterday: 41 °F (at 6:00 AM)
Average temperature yesterday: 42 °F

Past Weeks' High & Low Weather Summary

 TemperatureHumidityPressure
High73 °F (Sep 9, 4:00 PM)100% (Sep 11, 7:00 AM)30.40 "Hg (Sep 11, 7:00 AM)
Low25 °F (Sep 19, 6:00 AM)40% (Sep 19, 3:00 PM)29.18 "Hg (Sep 11, 12:00 PM)
Average46 °F78%29.98 "Hg
* Reported Sep 8 6:00 PM — Sep 23 6:00 PM, Chibougamau, Weather by CustomWeather, © 2014

Note: Actual official high and low records may vary slightly from our data, if they occured in-between our weather recording intervals... More about our weather records

Advertising

Chibougamau weather history for previous 24 hours

 ConditionsComfort  
Time TempWeatherWind HumidityBarometerVisibility
6:00 PM
Sep 23
46 °FPassing clouds.9 mph53%30.28 "Hg15 mi
5:00 PM50 °FScattered clouds.10 mph50%30.27 "Hg15 mi
4:00 PM50 °FScattered clouds.12 mph54%30.24 "Hg15 mi
3:00 PM48 °FBroken clouds.13 mph58%30.22 "Hg15 mi
2:00 PM48 °FPartly sunny.10 mph62%30.19 "Hg15 mi
1:00 PM43 °FSprinkles. Partly sunny.10 mph87%30.18 "Hg15 mi
12:00 PM45 °FPartly sunny.12 mph76%30.15 "Hg15 mi
11:00 AM41 °FPartly sunny.10 mph87%30.14 "Hg15 mi
10:00 AM41 °FMostly cloudy.8 mph93%30.10 "Hg15 mi
9:00 AM41 °FMostly cloudy.7 mph93%30.08 "Hg15 mi
8:52 AM41 °FMostly cloudy.7 mph93%30.07 "Hg15 mi
8:00 AM41 °FLight rain. Low clouds.6 mph93%30.05 "Hg12 mi
7:00 AM39 °FLight rain. Low clouds.5 mph100%30.03 "Hg12 mi
6:00 AM39 °FLight rain. Low clouds.6 mph100%30.00 "Hg8 mi
8:00 PM
Sep 22
41 °FPassing clouds.9 mph76%29.89 "Hg15 mi
7:00 PM41 °FPartly sunny.8 mph70%29.85 "Hg15 mi
Weather by CustomWeather, © 2014

See weather overviewHow to use our weather pages